Volver al catálogo

ELISA E24

ActivoMilitarSSO
NORAD 38008·PAYLOAD·🇫🇷 France

Lanzado Dec 17, 2011 desde Guiana Space Centre

Loading…

Próximos Pases (próximas 24 horas)

TLE

ActualizadoSource: Space-Track

Época: Sep 14, 2026, 13:43 UTC

1 38008U 11076B   26257.57184352  .00000356  00000-0  41914-4 0  9998
2 38008  97.6513 275.4250 0001673  70.2100 289.9299 14.90481983792153

Sigue ELISA E24 en tiempo real con AllMySat

Download on the App Store